• Join FlightAware (Why Join?)
  • Login
  • US Flag 
09:42PM EDT


 

Airport Tracker/Info


-or-


 

Live Flight TrackerFlight Track Log ✈ N664CA ✈ 08-Apr-2014 ✈ KBDR - KFRG

Flight Track Log - Related Links

Times and Time Zones

All times are in EDT time to prevent confusion due to time zone crossing. See the N664CA flight status page for this flight to view local times or setup timezone preferences in your user account.

Time Position Orientation Groundspeed Altitude Reporting Facility
EDT Latitude Longitude Course Direction KTS MPH feet Rate Location/Type
02:01PM 40.6500 -73.3000 143° Southeast 113 130 1,600  Level New York TRACON
02:02PM 40.6333 -73.2833 143° Southeast 94 108 1,400 -120 Descending New York TRACON
02:03PM 40.6167 -73.2500 123° Southeast 116 133 1,400  Level New York TRACON
02:04PM 40.6333 -73.2667 323° Northwest 89 102 1,400 60 Level New York TRACON
02:05PM 40.6167 -73.2667 180° South 100 115 1,600 120 Climbing New York TRACON
02:06PM 40.6333 -73.2667 360° North 102 117 1,700  Climbing New York TRACON
02:08PM 40.6167 -73.2667 229° Southwest 112 129 1,600 -60 Descending New York TRACON
02:10PM 40.6167 -73.2667 229° Southwest 99 114 1,500  Descending New York TRACON
02:12PM 40.6167 -73.2667 229° Southwest 81 93 1,600 60 Climbing New York TRACON
02:13PM 40.6333 -73.2500 37° Northeast 114 131 1,700  Climbing New York TRACON
02:14PM 40.6333 -73.2667 270° West 79 91 1,600 -60 Descending New York TRACON
02:15PM 40.6167 -73.2500 143° Southeast 125 144 1,600  Level New York TRACON
02:16PM 40.6333 -73.2667 323° Northwest 81 93 1,600 60 Level New York TRACON
02:17PM 40.6167 -73.2500 143° Southeast 123 142 1,800 60 Climbing New York TRACON
02:18PM 40.6333 -73.2667 323° Northwest 87 100 1,800  Level New York TRACON
02:19PM 40.6167 -73.2667 180° South 92 106 1,800  Level New York TRACON
02:20PM 40.6333 -73.2500 37° Northeast 110 127 1,800 -60 Level New York TRACON
02:21PM 40.6333 -73.2667 270° West 76 87 1,700 -120 Descending New York TRACON
02:22PM 40.6167 -73.2667 180° South 115 132 1,600  Descending New York TRACON
02:23PM 40.6333 -73.2667 360° North 100 115 1,700 60 Climbing New York TRACON